timestamp,surface_pressure_avg,surface_temp_avg,battery_voltage,lat,long
2018-12-19 00:00:00+00:00,272.1048,2.7,12.81,47.84626,-54.09684
2018-12-19 00:10:00+00:00,272.9664,2.7,12.81,47.84626,-54.09684
2018-12-19 00:20:00+00:00,273.3281,2.7,12.89,47.84626,-54.09684
2018-12-19 00:30:00+00:00,267.4764,2.7,12.89,47.84626,-54.09684
2018-12-19 00:40:00+00:00,263.1864,2.7,12.89,47.84626,-54.09684
2018-12-19 00:50:00+00:00,261.0931,2.7,12.89,47.84626,-54.09684
2018-12-19 01:00:00+00:00,255.4514,2.7,12.81,47.84626,-54.09684
2018-12-19 01:10:00+00:00,255.2614,2.7,12.81,47.84626,-54.09684
2018-12-19 01:20:00+00:00,255.4181,2.7,12.89,47.84626,-54.09684
2018-12-19 01:30:00+00:00,250.8864,2.7,12.89,47.84626,-54.09684
2018-12-19 01:40:00+00:00,245.8481,2.7,12.89,47.84626,-54.09684
2018-12-19 01:50:00+00:00,247.7898,2.7,12.89,47.84626,-54.09684
2018-12-19 02:00:00+00:00,246.4164,2.7,12.81,47.84626,-54.09684
2018-12-19 02:10:00+00:00,244.9414,2.7,12.81,47.84626,-54.09684
2018-12-19 02:20:00+00:00,248.5298,2.7,12.89,47.84626,-54.09684
2018-12-19 02:30:00+00:00,255.7781,2.7,12.89,47.84626,-54.09684
2018-12-19 02:40:00+00:00,254.2481,2.7,12.89,47.84626,-54.09684
2018-12-19 02:50:00+00:00,250.1548,2.7,12.89,47.84626,-54.09684
2018-12-19 03:00:00+00:00,252.8581,2.7,12.81,47.84626,-54.09684
2018-12-19 03:10:00+00:00,256.6614,2.7,12.81,47.84626,-54.09684
2018-12-19 03:20:00+00:00,255.2381,2.7,12.89,47.84626,-54.09684
2018-12-19 03:30:00+00:00,257.6131,2.7,12.89,47.84626,-54.09684
2018-12-19 03:40:00+00:00,266.1881,2.7,12.89,47.84626,-54.09684
2018-12-19 03:50:00+00:00,269.1864,2.7,12.89,47.84626,-54.09684
2018-12-19 04:00:00+00:00,267.328,2.7,12.81,47.84626,-54.09684
2018-12-19 04:10:00+00:00,269.8414,2.7,12.73,47.84626,-54.09684
2018-12-19 04:20:00+00:00,277.5314,2.7,12.89,47.84626,-54.09684
2018-12-19 04:30:00+00:00,282.3964,2.7,12.89,47.84626,-54.09684
2018-12-19 04:40:00+00:00,288.8347,2.7,12.89,47.84626,-54.09684
2018-12-19 04:50:00+00:00,294.613,2.7,12.89,47.84626,-54.09684
2018-12-19 05:00:00+00:00,296.7014,2.7,12.81,47.84626,-54.09684
2018-12-19 05:10:00+00:00,295.6996,2.7,12.73,47.84626,-54.09684
2018-12-19 05:20:00+00:00,305.378,2.72,12.81,47.84626,-54.09684
2018-12-19 05:30:00+00:00,317.548,2.72,12.81,47.84626,-54.09684
2018-12-19 05:40:00+00:00,320.2114,2.73,12.89,47.84626,-54.09684
2018-12-19 05:50:00+00:00,315.3196,2.76,12.89,47.84626,-54.09684
2018-12-19 06:00:00+00:00,324.978,2.78,12.81,47.84626,-54.09684
2018-12-19 06:10:00+00:00,339.0096,2.77,12.73,47.84626,-54.09684
2018-12-19 06:20:00+00:00,340.9764,2.78,12.81,47.84626,-54.09684
2018-12-19 06:30:00+00:00,343.593,2.8,12.81,47.84626,-54.09684
2018-12-19 06:40:00+00:00,357.9896,2.8,12.89,47.84626,-54.09684
2018-12-19 06:50:00+00:00,365.188,2.8,12.89,47.84626,-54.09684
2018-12-19 07:00:00+00:00,359.9347,2.8,12.81,47.84626,-54.09684
2018-12-19 07:10:00+00:00,360.2764,2.8,12.73,47.84626,-54.09684
2018-12-19 07:20:00+00:00,374.3213,2.8,12.81,47.84626,-54.09684
2018-12-19 07:30:00+00:00,374.6446,2.8,12.81,47.84626,-54.09684
2018-12-19 07:40:00+00:00,363.8896,2.8,12.89,47.84626,-54.09684
2018-12-19 07:50:00+00:00,370.9463,2.8,12.89,47.84626,-54.09684
2018-12-19 08:00:00+00:00,383.3412,2.8,12.81,47.84626,-54.09684
2018-12-19 08:10:00+00:00,374.3829,2.8,12.73,47.84626,-54.09684
2018-12-19 08:20:00+00:00,364.3196,2.8,12.81,47.84626,-54.09684
2018-12-19 08:30:00+00:00,374.0946,2.8,12.81,47.84626,-54.09684
2018-12-19 08:40:00+00:00,377.6013,2.8,12.81,47.84626,-54.09684
2018-12-19 08:50:00+00:00,363.4229,2.8,12.89,47.84626,-54.09684
2018-12-19 09:00:00+00:00,364.3879,2.8,12.81,47.84626,-54.09684
2018-12-19 09:10:00+00:00,370.1446,2.8,12.73,47.84626,-54.09684
2018-12-19 09:20:00+00:00,363.3463,2.8,12.81,47.84626,-54.09684
2018-12-19 09:30:00+00:00,357.6546,2.8,12.81,47.84626,-54.09684
2018-12-19 09:40:00+00:00,359.353,2.8,12.81,47.84626,-54.09684
2018-12-19 09:50:00+00:00,359.2129,2.8,12.89,47.84626,-54.09684
2018-12-19 10:00:00+00:00,357.363,2.8,12.81,47.84626,-54.09684
2018-12-19 10:10:00+00:00,360.263,2.8,12.73,47.84626,-54.09684
2018-12-19 10:20:00+00:00,357.2529,2.8,12.81,47.84626,-54.09684
2018-12-19 10:30:00+00:00,349.2797,2.8,12.81,47.84626,-54.09684
2018-12-19 10:40:00+00:00,346.883,2.8,12.81,47.84626,-54.09684
2018-12-19 10:50:00+00:00,344.4363,2.8,12.81,47.84626,-54.09684
2018-12-19 11:00:00+00:00,335.6246,2.8,12.81,47.84626,-54.09684
2018-12-19 11:10:00+00:00,325.9263,2.8,12.73,47.84626,-54.09684
2018-12-19 11:20:00+00:00,317.2797,2.8,12.81,47.84626,-54.09684
2018-12-19 11:30:00+00:00,307.968,2.8,12.81,47.84626,-54.09684
2018-12-19 11:40:00+00:00,299.798,2.8,12.81,47.84626,-54.09684
2018-12-19 11:50:00+00:00,294.468,2.8,12.81,47.84626,-54.09684
2018-12-19 12:00:00+00:00,287.3447,2.8,12.81,47.84626,-54.09684
2018-12-19 12:10:00+00:00,277.3648,2.8,12.73,47.84626,-54.09684
2018-12-19 12:20:00+00:00,272.5914,2.8,12.81,47.84626,-54.09684
2018-12-19 12:30:00+00:00,269.8947,2.8,12.89,47.84626,-54.09684
2018-12-19 12:40:00+00:00,258.038,2.8,12.97,47.84626,-54.09684
2018-12-19 12:50:00+00:00,249.8681,2.8,13.21,47.84626,-54.09684
2018-12-19 13:00:00+00:00,251.5248,2.8,13.29,47.84626,-54.09684
2018-12-19 13:10:00+00:00,246.5398,2.8,13.29,47.84626,-54.09684
2018-12-19 13:20:00+00:00,234.7198,2.8,13.37,47.84626,-54.09684
2018-12-19 13:30:00+00:00,231.6998,2.8,13.68,47.84626,-54.09684
2018-12-19 13:40:00+00:00,235.2881,2.8,14.56,47.84626,-54.09684
2018-12-19 13:50:00+00:00,231.4681,2.8,14.8,47.84626,-54.09684
2018-12-19 14:00:00+00:00,226.8614,2.81,14.96,47.84626,-54.09684
2018-12-19 14:10:00+00:00,229.1881,2.83,15.35,47.84626,-54.09684
2018-12-19 14:20:00+00:00,231.9681,2.85,15.75,47.84626,-54.09684
2018-12-19 14:30:00+00:00,226.9231,2.88,15.2,47.84626,-54.09684
2018-12-19 14:40:00+00:00,221.7998,2.85,15.11,47.84626,-54.09684
2018-12-19 14:50:00+00:00,225.5397,2.85,15.04,47.84626,-54.09684
2018-12-19 15:00:00+00:00,226.2031,2.88,14.96,47.84626,-54.09684
2018-12-19 15:10:00+00:00,217.1281,2.89,14.64,47.84626,-54.09684
2018-12-19 15:20:00+00:00,216.7448,2.89,15.04,47.84626,-54.09684
2018-12-19 15:30:00+00:00,232.1615,2.9,14.88,47.84626,-54.09684
2018-12-19 15:40:00+00:00,225.6398,2.9,14.96,47.84626,-54.09684
2018-12-19 15:50:00+00:00,214.5848,2.9,14.96,47.84626,-54.09684
2018-12-19 16:00:00+00:00,224.1631,2.9,14.56,47.84626,-54.09684
2018-12-19 16:10:00+00:00,231.4164,2.9,14.4,47.84626,-54.09684
2018-12-19 16:20:00+00:00,223.3847,2.9,14.4,47.84626,-54.09684
2018-12-19 16:30:00+00:00,223.4348,2.9,14.72,47.84626,-54.09684
2018-12-19 16:40:00+00:00,233.9214,2.9,14.96,47.84626,-54.09684
2018-12-19 16:50:00+00:00,234.4565,2.93,14.8,47.84626,-54.09684
2018-12-19 17:00:00+00:00,234.3447,2.95,14.64,47.84626,-54.09684
2018-12-19 17:10:00+00:00,243.8564,2.95,14.88,47.84626,-54.09684
2018-12-19 17:20:00+00:00,253.303,2.97,14.8,47.84626,-54.09684
2018-12-19 17:30:00+00:00,251.8264,2.98,14.72,47.84626,-54.09684
2018-12-19 17:40:00+00:00,251.7948,2.99,14.64,47.84626,-54.09684
2018-12-19 17:50:00+00:00,260.0214,2.98,14.72,47.84626,-54.09684
2018-12-19 18:00:00+00:00,269.9464,2.99,14.64,47.84626,-54.09684
2018-12-19 18:10:00+00:00,270.2198,2.99,14.64,47.84626,-54.09684
2018-12-19 18:20:00+00:00,270.0564,2.99,14.72,47.84626,-54.09684
2018-12-19 18:30:00+00:00,276.6797,2.98,14.48,47.84626,-54.09684
2018-12-19 18:40:00+00:00,283.8064,2.92,14.32,47.84626,-54.09684
2018-12-19 18:50:00+00:00,287.473,2.91,14.48,47.84626,-54.09684
2018-12-19 19:00:00+00:00,296.418,2.91,14.16,47.84626,-54.09684
2018-12-19 19:10:00+00:00,305.143,2.9,13.92,47.84626,-54.09684
2018-12-19 19:20:00+00:00,305.8229,2.9,13.92,47.84626,-54.09684
2018-12-19 19:30:00+00:00,305.8947,2.9,13.84,47.84626,-54.09684
2018-12-19 19:40:00+00:00,311.948,2.9,13.76,47.84626,-54.09684
2018-12-19 19:50:00+00:00,316.1964,2.9,13.68,47.84626,-54.09684
2018-12-19 20:00:00+00:00,312.0447,2.9,13.6,47.84626,-54.09684
2018-12-19 20:10:00+00:00,316.0081,2.9,13.37,47.84626,-54.09684
2018-12-19 20:20:00+00:00,324.5797,2.9,13.37,47.84626,-54.09684
2018-12-19 20:30:00+00:00,331.6396,2.9,13.37,47.84626,-54.09684
2018-12-19 20:40:00+00:00,326.7414,2.9,13.29,47.84626,-54.09684
2018-12-19 20:50:00+00:00,331.2762,2.9,13.29,47.84626,-54.09684
2018-12-19 21:00:00+00:00,340.6014,2.9,13.21,47.84626,-54.09684
2018-12-19 21:10:00+00:00,341.148,2.9,13.05,47.84626,-54.09684
2018-12-19 21:20:00+00:00,338.1179,2.89,13.13,47.84626,-54.09684
2018-12-19 21:30:00+00:00,340.8546,2.89,13.13,47.84626,-54.09684
2018-12-19 21:40:00+00:00,344.6013,2.89,13.13,47.84626,-54.09684
2018-12-19 21:50:00+00:00,340.1414,2.87,13.13,47.84626,-54.09684
2018-12-19 22:00:00+00:00,339.4329,2.87,13.05,47.84626,-54.09684
2018-12-19 22:10:00+00:00,342.6747,2.87,12.97,47.84626,-54.09684
2018-12-19 22:20:00+00:00,346.7697,2.88,13.05,47.84626,-54.09684
2018-12-19 22:30:00+00:00,340.713,2.82,13.05,47.84626,-54.09684
2018-12-19 22:40:00+00:00,335.7063,2.8,13.05,47.84626,-54.09684
2018-12-19 22:50:00+00:00,337.3979,2.81,13.05,47.84626,-54.09684
2018-12-19 23:00:00+00:00,334.668,2.8,13.05,47.84626,-54.09684
2018-12-19 23:10:00+00:00,321.0663,2.8,12.97,47.84626,-54.09684
2018-12-19 23:20:00+00:00,314.4297,2.8,13.05,47.84626,-54.09684
2018-12-19 23:30:00+00:00,311.353,2.8,13.05,47.84626,-54.09684
2018-12-19 23:40:00+00:00,299.9747,2.8,13.05,47.84626,-54.09684
2018-12-19 23:50:00+00:00,290.283,2.8,13.05,47.84626,-54.09684
